Regional Weather Roundup
Issued by NWS Newport/Morehead, NC

Current Version | Previous Version | Graphics & Text | Print | Product List | Glossary Off
Versions: 1 2 3 4 5 6 7 8 9 10 11 12 13 14 15 16 17 18 19 20 21 22 23 24 25 26 27 28 29 30 31 32 33 34 35 36 37 38 39 40 41 42 43 44 45 46 47 48 49 50

000
ASUS42 KMHX 242325
RWRMHX
WEATHER ROUNDUP FOR EASTERN NORTH CAROLINA
NATIONAL WEATHER SERVICE NEWPORT/MOREHEAD CITY NC
700 PM EDT SUN MAY 24 2015

NOTE: "FAIR" INDICATES FEW OR NO CLOUDS BELOW 12,000 FEET
WITH NO SIGNIFICANT WEATHER AND/OR OBSTRUCTIONS TO VISIBILITY

NCZ015>017-031-032-045>047-102-103-250000-
NORTH COAST

CITY           SKY/WX    TMP DP  RH WIND       PRES   REMARKS
EDENTON        MOSUNNY   76  58  53 S9        30.33R
ELIZABETH CITY SUNNY     74  58  57 SE8       30.33S
KITTY HAWK     CLEAR     71  55  58 SE5       30.34R
MANTEO         SUNNY     71  55  56 S9        30.35S

$$

NCZ045>047-081-094-103-104-250000-
CENTRAL COAST

CITY           SKY/WX    TMP DP  RH WIND       PRES   REMARKS
FRISCO         SUNNY     73  54  51 SE7       30.35F
SWANQUARTER      N/A     75 N/A N/A S9        30.30S

$$

NCZ095-097-098-100-101-250000-
SOUTHERN COAST

CITY           SKY/WX    TMP DP  RH WIND       PRES   REMARKS
BEAUFORT       SUNNY     74  58  57 SE7       30.34S
CEDAR ISLAND     N/A     75 N/A N/A SE7G14    30.39S
JACKSONVILLE   SUNNY     75  58  55 S10       30.33F
PINEY ISLAND   CLEAR    N/A N/A N/A SE12      30.34S
WILMINGTON       N/A     76  58  53 SE8       30.33F


$$

NCZ011>013-027>030-043-044-078>080-089-090>093-098-250000-
COASTAL PLAIN

CITY           SKY/WX    TMP DP  RH WIND       PRES   REMARKS
AHOSKIE        SUNNY     76  55  48 CALM      30.32R
CLINTON        SUNNY     78  58  50 SE3       30.32S
ELIZABETHTOWN  SUNNY     77  57  49 SE10      30.32R
GOLDSBORO      SUNNY     80  56  44 S2        30.29
GREENVILLE     MOSUNNY   81  57  44 SE8       30.32S
HAVELOCK         N/A     75  56  51 S7        30.35S
KENANSVILLE    SUNNY     77  52  41 CALM      30.33S
KINSTON        SUNNY     79  54  41 S12       30.32
NEW BERN       SUNNY     77  56  48 S12       30.34S
RICHLANDS      SUNNY     75  54  46 S8        30.34S
ROCKY MOUNT    SUNNY     80  53  39 S6        30.30F
WASHINGTON     SUNNY     76  56  49 SE8       30.33S
WHITEVILLE     SUNNY     77  57  49 SE8       30.31F

$$

AMZ130-135-150-152-154-156-158-170-250-252-270-ANZ085-086-088-633-658-670-250000-
MARINE OBSERVATIONS

STATION/POSITION TIME  TEMP    WIND        PRES    WAVE   SWELL
                       AIR SEA DIR/SP/G            HT/PER HT/PER
                 (UTC) (F)     (DEG/KT/KT) (MB)    (FT/S) (FT/S)
CHESAPEAKE LIGHT 2300   64     160/ 20/ 21 1027.3
64 E VA BEACH    2250   64 62  150/  8/  8 1027.4    1/ 6   2/ 6
DUCK             2300   67 64  140/ 11/ 13 1026.4
2 E DUCK         2211      65                N/A     2/ 6
OREGON INLET     2300   69 72  130/  6/  9 1027.7
13E OREGON INLT  2300      67                N/A     2/ 7
HATTERAS CG      2300   73 74  110/  5/  7 1027.3
DIAMOND BUOY     2250   74 78   40/  6/  6 1027.7    2/ 8   2/ 8
CAPE LOOKOUT     2300   74     110/  7/  8 1027.2
BEAUFORT LAB     2300   75 76  160/  8/ 11 1026.6
27 SE WRIGHTSVLE 2300   72 77  110/  8/ 10   N/A
5 SE WRIGHTSVLE  2208   76 77  130/  8/ 10 1027.4
225 S CAPE HAT   2250   72 74   80/ 16/ 19 1026.7    5/ 6   2/13
41 SE CHARLESTON 2250   76 75   90/ 17/ 19 1025.4    5/ 7   2/15

$$



USA.gov is the U.S. government's official web portal to all federal, state and local government web resources and services.